| time (UTC) | temp F | wind direction | speed knots | gust knots | rain 1hr in | rain 24hr in | rain mn in | humidity % | barometer mb |
| 20260906023403 | 46 | 54 | 0.0 | 0.0 | 0.00 | 0.18 | 0.00 | 81 | 1025.8 |
| 20260906022403 | 47 | 54 | 0.0 | 0.0 | 0.00 | 0.18 | 0.00 | 80 | 1025.8 |
| 20260906021902 | 47 | 54 | 0.0 | 0.0 | 0.00 | 0.18 | 0.00 | 80 | 1025.8 |
| 20260906021402 | 47 | 55 | 0.0 | 0.0 | 0.00 | 0.19 | 0.00 | 80 | 1025.8 |
| 20260906020904 | 46 | 54 | 0.0 | 0.0 | 0.00 | 0.20 | 0.00 | 80 | 1025.7 |
| 20260906020402 | 46 | 54 | 0.0 | 0.0 | 0.00 | 0.20 | 0.00 | 80 | 1025.8 |
| 20260906015403 | 46 | 54 | 0.0 | 0.0 | 0.00 | 0.20 | 0.00 | 81 | 1025.8 |
| 20260906014902 | 46 | 54 | 0.0 | 0.0 | 0.00 | 0.20 | 0.00 | 81 | 1025.8 |
| 20260906014401 | 46 | 54 | 0.0 | 0.0 | 0.00 | 0.20 | 0.00 | 82 | 1025.8 |
| 20260906013902 | 46 | 54 | 0.0 | 0.0 | 0.00 | 0.20 | 0.00 | 81 | 1025.7 |
| 20260906013404 | 46 | 55 | 0.0 | 0.0 | 0.00 | 0.20 | 0.00 | 82 | 1025.7 |
| 20260906012905 | 46 | 54 | 0.0 | 0.0 | 0.00 | 0.20 | 0.00 | 82 | 1025.7 |
| 20260906012405 | 47 | 54 | 0.0 | 0.0 | 0.00 | 0.20 | 0.00 | 82 | 1025.7 |
| 20260906011905 | 47 | 54 | 0.0 | 0.0 | 0.00 | 0.20 | 0.00 | 82 | 1025.6 |
| 20260906011405 | 47 | 54 | 0.0 | 0.0 | 0.00 | 0.20 | 0.00 | 82 | 1025.6 |
| 20260906010411 | 47 | 54 | 0.0 | 0.0 | 0.00 | 0.20 | 0.00 | 82 | 1025.5 |
| 20260906005905 | 46 | 54 | 0.0 | 0.0 | 0.00 | 0.20 | 0.00 | 83 | 1025.5 |
| 20260906005404 | 46 | 54 | 0.0 | 0.0 | 0.00 | 0.20 | 0.00 | 84 | 1025.6 |
| 20260906004905 | 46 | 54 | 0.0 | 0.0 | 0.00 | 0.20 | 0.00 | 84 | 1025.5 |
| 20260906004404 | 47 | 54 | 0.0 | 0.0 | 0.00 | 0.20 | 0.00 | 83 | 1025.5 |
| 20260906003404 | 47 | 54 | 0.0 | 0.0 | 0.00 | 0.20 | 0.00 | 84 | 1025.4 |
| 20260906002406 | 47 | 54 | 0.0 | 0.0 | 0.00 | 0.20 | 0.00 | 84 | 1025.4 |
| 20260906001404 | 47 | 54 | 0.0 | 0.0 | 0.00 | 0.20 | 0.00 | 84 | 1025.3 |
| 20260906000906 | 47 | 54 | 0.0 | 0.0 | 0.00 | 0.20 | 0.00 | 84 | 1025.4 |
| 20260906000405 | 47 | 54 | 0.0 | 0.0 | 0.00 | 0.20 | 0.00 | 84 | 1025.3 |
| 20260905235904 | 47 | 54 | 0.0 | 0.0 | 0.00 | 0.20 | 0.00 | 84 | 1025.3 |
| 20260905235407 | 47 | 54 | 0.0 | 0.0 | 0.00 | 0.20 | 0.00 | 84 | 1025.1 |
| 20260905234902 | 47 | 54 | 0.0 | 0.0 | 0.00 | 0.20 | 0.00 | 84 | 1025.1 |
| 20260905234402 | 47 | 54 | 0.0 | 0.0 | 0.00 | 0.20 | 0.00 | 85 | 1025.1 |
| 20260905233905 | 48 | 55 | 0.0 | 0.0 | 0.00 | 0.20 | 0.00 | 84 | 1025.1 |
| 20260905233403 | 48 | 54 | 0.0 | 0.0 | 0.00 | 0.20 | 0.00 | 84 | 1025.0 |
| 20260905232403 | 48 | 54 | 0.0 | 0.0 | 0.00 | 0.20 | 0.00 | 84 | 1025.0 |
| 20260905231903 | 48 | 54 | 0.0 | 0.0 | 0.00 | 0.20 | 0.00 | 85 | 1025.0 |
| 20260905231402 | 48 | 54 | 0.0 | 1.7 | 0.00 | 0.20 | 0.00 | 84 | 1024.9 |
| 20260905230901 | 49 | 54 | 0.0 | 1.7 | 0.00 | 0.20 | 0.00 | 84 | 1024.9 |
| 20260905225902 | 49 | 54 | 0.0 | 2.6 | 0.00 | 0.20 | 0.00 | 84 | 1024.9 |
| 20260905225403 | 49 | 53 | 0.0 | 2.6 | 0.00 | 0.20 | 0.00 | 84 | 1024.8 |
| 20260905224905 | 49 | 48 | 0.0 | 2.6 | 0.00 | 0.20 | 0.00 | 83 | 1024.8 |
| 20260905224407 | 50 | 25 | 0.0 | 2.6 | 0.00 | 0.20 | 0.00 | 83 | 1024.8 |
| 20260905223903 | 50 | 25 | 0.0 | 2.6 | 0.00 | 0.20 | 0.00 | 83 | 1024.8 |
| 20260905223404 | 50 | 27 | 0.0 | 1.7 | 0.00 | 0.20 | 0.00 | 83 | 1024.8 |
| 20260905222904 | 51 | 358 | 0.0 | 1.7 | 0.00 | 0.20 | 0.00 | 82 | 1024.8 |
| 20260905222403 | 51 | 358 | 0.0 | 1.7 | 0.00 | 0.20 | 0.00 | 82 | 1024.8 |
| 20260905221902 | 51 | 348 | 0.0 | 1.7 | 0.00 | 0.20 | 0.00 | 82 | 1024.8 |
| 20260905221401 | 51 | 348 | 0.0 | 1.7 | 0.00 | 0.20 | 0.00 | 82 | 1024.8 |
| 20260905220903 | 52 | 348 | 0.0 | 0.9 | 0.00 | 0.20 | 0.00 | 82 | 1024.8 |
| 20260905220402 | 51 | 348 | 0.0 | 0.9 | 0.00 | 0.20 | 0.00 | 82 | 1024.8 |
| 20260905215400 | 51 | 353 | 0.0 | 3.5 | 0.00 | 0.20 | 0.20 | 84 | 1024.6 |
| 20260905214859 | 50 | 353 | 0.0 | 3.5 | 0.00 | 0.20 | 0.20 | 84 | 1024.5 |
| 20260905214400 | 50 | 358 | 0.0 | 1.7 | 0.00 | 0.20 | 0.20 | 84 | 1024.5 |
| 20260905213900 | 50 | 23 | 0.0 | 0.9 | 0.00 | 0.20 | 0.20 | 84 | 1024.5 |
| 20260905212857 | 50 | 23 | 0.0 | 1.7 | 0.00 | 0.20 | 0.20 | 84 | 1024.4 |
| 20260905212356 | 50 | 24 | 0.0 | 1.7 | 0.00 | 0.20 | 0.20 | 84 | 1024.4 |
| 20260905211854 | 50 | 23 | 0.0 | 1.7 | 0.00 | 0.20 | 0.20 | 84 | 1024.4 |
| 20260905211354 | 50 | 23 | 0.0 | 1.7 | 0.00 | 0.20 | 0.20 | 84 | 1024.3 |
| 20260905210852 | 50 | 342 | 0.0 | 1.7 | 0.00 | 0.20 | 0.20 | 84 | 1024.3 |
| 20260905205853 | 50 | 293 | 0.0 | 0.9 | 0.00 | 0.20 | 0.20 | 84 | 1024.3 |
| 20260905205353 | 50 | 292 | 0.0 | 0.9 | 0.00 | 0.20 | 0.20 | 84 | 1024.2 |
| 20260905204351 | 50 | 289 | 0.0 | 0.0 | 0.00 | 0.20 | 0.20 | 84 | 1024.2 |
| 20260905203851 | 51 | 289 | 0.0 | 0.0 | 0.00 | 0.20 | 0.20 | 84 | 1024.1 |
| 20260905203347 | 51 | 289 | 0.0 | 0.0 | 0.00 | 0.20 | 0.20 | 83 | 1024.0 |
| 20260905202846 | 51 | 289 | 0.0 | 0.0 | 0.00 | 0.20 | 0.20 | 83 | 1024.0 |
| 20260905202347 | 51 | 288 | 0.0 | 0.0 | 0.00 | 0.20 | 0.20 | 83 | 1023.9 |
| 20260905201846 | 51 | 287 | 0.0 | 0.0 | 0.00 | 0.20 | 0.20 | 83 | 1023.8 |
| 20260905201347 | 52 | 353 | 0.0 | 0.0 | 0.00 | 0.20 | 0.20 | 83 | 1023.8 |
| 20260905200848 | 52 | 289 | 0.0 | 0.0 | 0.00 | 0.20 | 0.20 | 83 | 1023.9 |
| 20260905200346 | 52 | 288 | 0.0 | 0.0 | 0.00 | 0.20 | 0.20 | 82 | 1023.9 |
| 20260905195846 | 53 | 288 | 0.0 | 0.0 | 0.00 | 0.20 | 0.20 | 82 | 1023.9 |
| 20260905195349 | 53 | 289 | 0.0 | 0.0 | 0.00 | 0.20 | 0.20 | 81 | 1023.7 |
| 20260905194851 | 53 | 289 | 0.0 | 0.0 | 0.00 | 0.20 | 0.20 | 81 | 1023.7 |
| 20260905194342 | 54 | 289 | 0.0 | 0.0 | 0.00 | 0.20 | 0.20 | 81 | 1023.6 |
| 20260905193842 | 54 | 288 | 0.0 | 2.6 | 0.00 | 0.20 | 0.20 | 80 | 1023.4 |
| 20260905193343 | 55 | 353 | 0.0 | 2.6 | 0.00 | 0.20 | 0.20 | 79 | 1023.3 |
| 20260905192843 | 55 | 287 | 0.0 | 0.0 | 0.00 | 0.20 | 0.20 | 78 | 1023.2 |
| 20260905192341 | 55 | 285 | 0.0 | 3.5 | 0.00 | 0.20 | 0.20 | 78 | 1023.1 |
| 20260905191841 | 56 | 284 | 0.0 | 3.5 | 0.00 | 0.20 | 0.20 | 78 | 1023.1 |
| 20260905190343 | 58 | 330 | 0.0 | 1.7 | 0.00 | 0.20 | 0.20 | 74 | 1023.0 |
| 20260905185839 | 59 | 353 | 0.0 | 0.0 | 0.00 | 0.20 | 0.20 | 72 | 1022.9 |
| 20260905184838 | 61 | 353 | 0.0 | 0.9 | 0.00 | 0.20 | 0.20 | 68 | 1022.8 |
| 20260905184337 | 61 | 353 | 0.0 | 2.6 | 0.00 | 0.20 | 0.20 | 67 | 1022.7 |
| 20260905183337 | 62 | 326 | 0.9 | 4.3 | 0.00 | 0.20 | 0.20 | 65 | 1022.5 |
| 20260905182836 | 62 | 344 | 0.9 | 5.2 | 0.00 | 0.20 | 0.20 | 64 | 1022.3 |
| 20260905182337 | 62 | 301 | 1.7 | 6.1 | 0.00 | 0.20 | 0.20 | 64 | 1022.3 |
| 20260905181332 | 63 | 353 | 0.9 | 8.7 | 0.00 | 0.20 | 0.20 | 64 | 1022.2 |
| 20260905180835 | 63 | 322 | 1.7 | 8.7 | 0.00 | 0.20 | 0.20 | 64 | 1022.1 |
| 20260905175822 | 63 | 293 | 0.9 | 3.5 | 0.00 | 0.20 | 0.20 | 64 | 1022.0 |
| 20260905175319 | 64 | 281 | 0.9 | 3.5 | 0.00 | 0.20 | 0.20 | 64 | 1022.0 |
| 20260905174813 | 64 | 32 | 1.7 | 7.8 | 0.00 | 0.20 | 0.20 | 63 | 1021.9 |
| 20260905174311 | 64 | 35 | 1.7 | 7.8 | 0.00 | 0.20 | 0.20 | 62 | 1021.9 |
| 20260905173811 | 65 | 336 | 1.7 | 7.8 | 0.00 | 0.20 | 0.20 | 62 | 1021.8 |
| 20260905173312 | 65 | 337 | 1.7 | 6.1 | 0.00 | 0.20 | 0.20 | 61 | 1021.8 |
| 20260905172810 | 65 | 313 | 1.7 | 7.8 | 0.00 | 0.20 | 0.20 | 61 | 1021.6 |
| 20260905172311 | 65 | 92 | 1.7 | 7.8 | 0.00 | 0.20 | 0.20 | 61 | 1021.5 |
| 20260905171807 | 65 | 36 | 1.7 | 7.8 | 0.00 | 0.20 | 0.20 | 61 | 1021.5 |
| 20260905171305 | 65 | 312 | 1.7 | 7.8 | 0.00 | 0.20 | 0.20 | 60 | 1021.4 |
| 20260905170807 | 65 | 353 | 1.7 | 7.0 | 0.00 | 0.20 | 0.20 | 59 | 1021.3 |
| 20260905170319 | 65 | 264 | 2.6 | 10.4 | 0.00 | 0.20 | 0.20 | 59 | 1021.2 |
| 20260905165803 | 66 | 353 | 2.6 | 10.4 | 0.00 | 0.20 | 0.20 | 60 | 1021.1 |
| 20260905165306 | 66 | 309 | 2.6 | 10.4 | 0.00 | 0.20 | 0.20 | 59 | 1021.1 |
| 20260905164302 | 66 | 236 | 2.6 | 8.7 | 0.00 | 0.20 | 0.20 | 60 | 1021.0 |
| 20260905163802 | 66 | 353 | 2.6 | 12.2 | 0.00 | 0.20 | 0.20 | 59 | 1021.0 |
| 20260905163302 | 67 | 313 | 2.6 | 12.2 | 0.00 | 0.20 | 0.20 | 59 | 1020.9 |
| 20260905162802 | 67 | 333 | 2.6 | 13.0 | 0.00 | 0.20 | 0.20 | 58 | 1020.8 |
| 20260905162305 | 67 | 271 | 2.6 | 13.0 | 0.00 | 0.20 | 0.20 | 58 | 1020.8 |
| 20260905161802 | 67 | 251 | 3.5 | 11.3 | 0.00 | 0.20 | 0.20 | 58 | 1020.8 |
| 20260905161302 | 67 | 358 | 3.5 | 11.3 | 0.00 | 0.20 | 0.20 | 57 | 1020.7 |
| 20260905160802 | 67 | 188 | 3.5 | 7.8 | 0.00 | 0.20 | 0.20 | 57 | 1020.7 |
| 20260905160305 | 68 | 268 | 3.5 | 9.6 | 0.00 | 0.20 | 0.20 | 58 | 1020.6 |
| 20260905155805 | 68 | 80 | 3.5 | 10.4 | 0.00 | 0.20 | 0.20 | 58 | 1020.6 |
| 20260905154802 | 68 | 317 | 3.5 | 10.4 | 0.00 | 0.20 | 0.20 | 58 | 1020.6 |
| 20260905153802 | 69 | 23 | 3.5 | 15.6 | 0.00 | 0.20 | 0.20 | 57 | 1020.5 |
| 20260905153302 | 69 | 343 | 3.5 | 15.6 | 0.00 | 0.20 | 0.20 | 59 | 1020.5 |
| 20260905152801 | 69 | 260 | 2.6 | 7.8 | 0.00 | 0.20 | 0.20 | 63 | 1020.5 |
| 20260905151803 | 68 | 241 | 2.6 | 8.7 | 0.00 | 0.20 | 0.20 | 64 | 1020.5 |
| 20260905151302 | 68 | 104 | 2.6 | 11.3 | 0.00 | 0.20 | 0.20 | 66 | 1020.4 |
| 20260905150805 | 68 | 151 | 2.6 | 12.2 | 0.00 | 0.20 | 0.20 | 66 | 1020.4 |
| 20260905150302 | 67 | 37 | 3.5 | 13.0 | 0.00 | 0.20 | 0.20 | 67 | 1020.4 |
| 20260905145306 | 68 | 46 | 3.5 | 12.2 | 0.00 | 0.20 | 0.20 | 65 | 1020.4 |
| 20260905144305 | 68 | 123 | 4.3 | 13.9 | 0.00 | 0.20 | 0.20 | 65 | 1020.4 |
| 20260905143805 | 69 | 329 | 3.5 | 9.6 | 0.00 | 0.20 | 0.20 | 65 | 1020.4 |
| 20260905143306 | 69 | 89 | 1.7 | 9.6 | 0.00 | 0.20 | 0.20 | 67 | 1020.3 |
| 20260905142803 | 69 | 55 | 1.7 | 11.3 | 0.00 | 0.20 | 0.20 | 66 | 1020.4 |
| 20260905142305 | 69 | 54 | 3.5 | 11.3 | 0.00 | 0.20 | 0.20 | 66 | 1020.4 |
| 20260905141802 | 68 | 84 | 4.3 | 13.9 | 0.00 | 0.20 | 0.20 | 66 | 1020.3 |
| 20260905141301 | 69 | 330 | 5.2 | 13.9 | 0.00 | 0.20 | 0.20 | 64 | 1020.3 |
| 20260905140303 | 68 | 344 | 2.6 | 10.4 | 0.00 | 0.20 | 0.20 | 70 | 1020.4 |
| 20260905135802 | 67 | 86 | 1.7 | 9.6 | 0.00 | 0.20 | 0.20 | 70 | 1020.5 |
| 20260905134302 | 67 | 66 | 2.6 | 9.6 | 0.00 | 0.20 | 0.20 | 71 | 1020.5 |
| 20260905133802 | 66 | 92 | 2.6 | 9.6 | 0.00 | 0.20 | 0.20 | 69 | 1020.6 |
| 20260905132804 | 67 | 321 | 3.5 | 10.4 | 0.00 | 0.20 | 0.20 | 69 | 1020.7 |
| 20260905132306 | 67 | 312 | 3.5 | 10.4 | 0.00 | 0.20 | 0.20 | 68 | 1020.6 |
| 20260905131805 | 67 | 310 | 2.6 | 10.4 | 0.00 | 0.20 | 0.20 | 68 | 1020.8 |
| 20260905131305 | 67 | 329 | 3.5 | 10.4 | 0.00 | 0.20 | 0.20 | 69 | 1020.7 |
| 20260905130806 | 67 | 97 | 3.5 | 13.0 | 0.00 | 0.20 | 0.20 | 68 | 1020.7 |
| 20260905125805 | 67 | 6 | 2.6 | 8.7 | 0.00 | 0.20 | 0.20 | 69 | 1020.7 |
| 20260905125305 | 66 | 358 | 1.7 | 7.8 | 0.00 | 0.20 | 0.20 | 72 | 1020.8 |
| 20260905123802 | 64 | 35 | 2.6 | 11.3 | 0.00 | 0.20 | 0.20 | 73 | 1021.0 |
| 20260905123302 | 64 | 39 | 2.6 | 11.3 | 0.00 | 0.20 | 0.20 | 73 | 1021.0 |
| 20260905122307 | 65 | 344 | 3.5 | 10.4 | 0.00 | 0.20 | 0.20 | 72 | 1021.1 |
| 20260905121802 | 65 | 312 | 3.5 | 9.6 | 0.00 | 0.20 | 0.20 | 73 | 1021.1 |
| 20260905121302 | 64 | 358 | 3.5 | 11.3 | 0.00 | 0.20 | 0.20 | 74 | 1021.1 |
| 20260905120802 | 65 | 353 | 4.3 | 11.3 | 0.00 | 0.20 | 0.20 | 71 | 1021.1 |
| 20260905120303 | 65 | 312 | 4.3 | 13.9 | 0.00 | 0.20 | 0.20 | 72 | 1021.2 |
| 20260905115758 | 66 | 341 | 3.5 | 13.9 | 0.00 | 0.20 | 0.20 | 71 | 1021.2 |
| 20260905115252 | 66 | 294 | 3.5 | 11.3 | 0.00 | 0.20 | 0.20 | 71 | 1021.2 |
| 20260905114746 | 65 | 249 | 3.5 | 11.3 | 0.00 | 0.20 | 0.20 | 73 | 1021.2 |
| 20260905114240 | 64 | 319 | 3.5 | 11.3 | 0.00 | 0.20 | 0.20 | 74 | 1021.3 |
| 20260905113734 | 64 | 92 | 2.6 | 9.6 | 0.00 | 0.20 | 0.20 | 75 | 1021.2 |
| 20260905113233 | 63 | 312 | 2.6 | 7.8 | 0.00 | 0.20 | 0.20 | 78 | 1021.3 |
| 20260905112734 | 62 | 353 | 3.5 | 8.7 | 0.00 | 0.20 | 0.20 | 77 | 1021.3 |
| 20260905112234 | 62 | 260 | 2.6 | 8.7 | 0.00 | 0.20 | 0.20 | 75 | 1021.4 |
| 20260905111734 | 63 | 279 | 2.6 | 8.7 | 0.00 | 0.20 | 0.20 | 75 | 1021.4 |
| 20260905111232 | 63 | 295 | 2.6 | 11.3 | 0.00 | 0.20 | 0.20 | 75 | 1021.3 |
| 20260905105731 | 64 | 186 | 2.6 | 11.3 | 0.00 | 0.20 | 0.20 | 76 | 1021.2 |
| 20260905104731 | 63 | 21 | 2.6 | 14.8 | 0.00 | 0.20 | 0.20 | 75 | 1021.3 |
| 20260905104232 | 63 | 82 | 2.6 | 9.6 | 0.00 | 0.20 | 0.20 | 78 | 1021.3 |
| 20260905103731 | 62 | 110 | 3.5 | 9.6 | 0.00 | 0.20 | 0.20 | 77 | 1021.3 |
| 20260905103232 | 62 | 106 | 3.5 | 13.0 | 0.00 | 0.20 | 0.20 | 78 | 1021.3 |
| 20260905102731 | 61 | 306 | 3.5 | 13.0 | 0.00 | 0.20 | 0.20 | 79 | 1021.4 |
| 20260905102231 | 61 | 266 | 2.6 | 7.8 | 0.00 | 0.20 | 0.20 | 79 | 1021.4 |
| 20260905101231 | 60 | 314 | 2.6 | 8.7 | 0.00 | 0.20 | 0.20 | 80 | 1021.4 |
| 20260905100731 | 60 | 9 | 2.6 | 9.6 | 0.00 | 0.20 | 0.20 | 80 | 1021.4 |
| 20260905095731 | 60 | 321 | 3.5 | 12.2 | 0.00 | 0.20 | 0.20 | 80 | 1021.4 |
| 20260905095244 | 61 | 358 | 3.5 | 16.5 | 0.00 | 0.20 | 0.20 | 79 | 1021.4 |
| 20260905094730 | 62 | 295 | 3.5 | 16.5 | 0.00 | 0.20 | 0.20 | 77 | 1021.5 |
| 20260905094245 | 62 | 72 | 2.6 | 7.8 | 0.00 | 0.20 | 0.20 | 79 | 1021.2 |
| 20260905093230 | 60 | 304 | 3.5 | 12.2 | 0.00 | 0.20 | 0.20 | 81 | 1021.2 |
| 20260905092230 | 60 | 353 | 2.6 | 11.3 | 0.00 | 0.20 | 0.20 | 80 | 1021.3 |
| 20260905091732 | 61 | 2 | 1.7 | 11.3 | 0.00 | 0.20 | 0.20 | 80 | 1021.3 |
| 20260905091233 | 61 | 312 | 1.7 | 6.1 | 0.00 | 0.20 | 0.20 | 81 | 1021.3 |
| 20260905090233 | 61 | 13 | 3.5 | 11.3 | 0.00 | 0.20 | 0.20 | 80 | 1021.3 |
| 20260905085733 | 61 | 85 | 3.5 | 11.3 | 0.00 | 0.20 | 0.20 | 80 | 1021.3 |
| 20260905085232 | 61 | 288 | 2.6 | 11.3 | 0.00 | 0.20 | 0.20 | 80 | 1021.2 |
| 20260905084733 | 61 | 42 | 2.6 | 10.4 | 0.00 | 0.20 | 0.20 | 81 | 1021.2 |
| 20260905084232 | 61 | 334 | 3.5 | 10.4 | 0.00 | 0.20 | 0.20 | 82 | 1021.0 |
| 20260905083733 | 61 | 233 | 3.5 | 10.4 | 0.00 | 0.20 | 0.20 | 82 | 1021.1 |
| 20260905083236 | 61 | 353 | 3.5 | 9.6 | 0.00 | 0.20 | 0.20 | 82 | 1020.9 |
| 20260905082731 | 61 | 341 | 3.5 | 13.9 | 0.00 | 0.20 | 0.20 | 82 | 1020.9 |
| 20260905082231 | 61 | 323 | 3.5 | 13.9 | 0.00 | 0.20 | 0.20 | 82 | 1020.9 |
| 20260905081819 | 60 | 46 | 2.6 | 8.7 | 0.00 | 0.20 | 0.20 | 83 | 1020.8 |
| 20260905081231 | 60 | 353 | 2.6 | 8.7 | 0.00 | 0.20 | 0.20 | 83 | 1020.7 |
| 20260905080231 | 59 | 282 | 1.7 | 7.8 | 0.00 | 0.20 | 0.20 | 84 | 1020.7 |
| 20260905075732 | 59 | 215 | 1.7 | 7.8 | 0.00 | 0.20 | 0.20 | 83 | 1020.7 |
| 20260905075231 | 58 | 79 | 1.7 | 6.1 | 0.00 | 0.20 | 0.20 | 82 | 1020.7 |
| 20260905074230 | 57 | 96 | 1.7 | 7.8 | 0.00 | 0.20 | 0.20 | 82 | 1020.5 |
| 20260905073230 | 57 | 353 | 1.7 | 4.3 | 0.00 | 0.20 | 0.20 | 78 | 1020.4 |
| 20260905072731 | 56 | 7 | 0.9 | 4.3 | 0.00 | 0.20 | 0.20 | 78 | 1020.4 |
| 20260905072230 | 56 | 110 | 0.9 | 7.0 | 0.00 | 0.20 | 0.20 | 77 | 1020.4 |
| 20260905071231 | 55 | 52 | 1.7 | 6.1 | 0.00 | 0.20 | 0.20 | 75 | 1020.3 |
| 20260905070732 | 55 | 45 | 2.6 | 5.2 | 0.00 | 0.20 | 0.20 | 75 | 1020.3 |
| 20260905070232 | 55 | 71 | 1.7 | 5.2 | 0.00 | 0.20 | 0.20 | 73 | 1020.3 |
| 20260905065732 | 54 | 67 | 1.7 | 5.2 | 0.00 | 0.20 | 0.20 | 73 | 1020.3 |
| 20260905064731 | 54 | 73 | 0.9 | 3.5 | 0.00 | 0.20 | 0.20 | 73 | 1020.1 |
| 20260905063732 | 54 | 72 | 0.9 | 4.3 | 0.00 | 0.20 | 0.20 | 69 | 1020.0 |
| 20260905063232 | 54 | 67 | 0.9 | 4.3 | 0.00 | 0.20 | 0.20 | 67 | 1019.8 |
| 20260905062731 | 54 | 358 | 0.0 | 2.6 | 0.00 | 0.20 | 0.20 | 66 | 1019.8 |
| 20260905061731 | 53 | 8 | 0.0 | 0.0 | 0.00 | 0.20 | 0.20 | 66 | 1019.6 |
| 20260905061230 | 53 | 8 | 0.0 | 0.0 | 0.00 | 0.20 | 0.20 | 67 | 1019.4 |
| 20260905060730 | 52 | 8 | 0.0 | 2.6 | 0.00 | 0.20 | 0.20 | 68 | 1019.4 |
| 20260905060235 | 52 | 8 | 0.0 | 2.6 | 0.00 | 0.20 | 0.20 | 69 | 1019.5 |
| 20260905055732 | 52 | 6 | 0.0 | 0.0 | 0.01 | 0.20 | 0.20 | 71 | 1019.4 |
| 20260905055230 | 51 | 6 | 0.0 | 0.0 | 0.01 | 0.20 | 0.20 | 72 | 1019.3 |
| 20260905054730 | 51 | 6 | 0.0 | 0.0 | 0.02 | 0.20 | 0.20 | 73 | 1019.3 |
| 20260905054230 | 51 | 6 | 0.0 | 0.0 | 0.02 | 0.20 | 0.20 | 74 | 1019.2 |
| 20260905053729 | 51 | 6 | 0.0 | 0.0 | 0.02 | 0.20 | 0.20 | 74 | 1019.2 |
| 20260905053230 | 51 | 6 | 0.0 | 0.9 | 0.03 | 0.20 | 0.20 | 75 | 1019.2 |
| 20260905051733 | 50 | 6 | 0.0 | 0.9 | 0.05 | 0.20 | 0.20 | 77 | 1019.2 |
| 20260905051234 | 50 | 6 | 0.0 | 0.0 | 0.06 | 0.20 | 0.20 | 78 | 1019.1 |
| 20260905050730 | 50 | 6 | 0.0 | 1.7 | 0.06 | 0.20 | 0.20 | 78 | 1019.2 |
| 20260905050230 | 50 | 6 | 0.0 | 1.7 | 0.07 | 0.20 | 0.20 | 79 | 1019.2 |
| 20260905045730 | 50 | 353 | 0.0 | 2.6 | 0.07 | 0.19 | 0.19 | 79 | 1019.3 |
| 20260905045230 | 50 | 353 | 0.9 | 3.5 | 0.08 | 0.19 | 0.19 | 79 | 1019.3 |
| 20260905044731 | 50 | 335 | 0.9 | 3.5 | 0.09 | 0.18 | 0.18 | 80 | 1019.1 |
| 20260905044230 | 50 | 222 | 0.9 | 3.5 | 0.10 | 0.18 | 0.17 | 79 | 1019.0 |
| 20260905043730 | 51 | 324 | 0.9 | 4.3 | 0.11 | 0.17 | 0.17 | 80 | 1018.8 |
| 20260905042731 | 51 | 333 | 0.9 | 4.3 | 0.11 | 0.16 | 0.16 | 81 | 1018.9 |
| 20260905042230 | 51 | 348 | 0.9 | 4.3 | 0.11 | 0.15 | 0.15 | 81 | 1019.1 |
| 20260905041733 | 51 | 326 | 0.9 | 4.3 | 0.12 | 0.15 | 0.14 | 82 | 1019.0 |
| 20260905041230 | 51 | 348 | 0.9 | 4.3 | 0.12 | 0.14 | 0.13 | 83 | 1019.0 |
| 20260905040731 | 51 | 348 | 0.0 | 2.6 | 0.11 | 0.13 | 0.13 | 83 | 1019.1 |
| 20260905040229 | 51 | 358 | 0.0 | 1.7 | 0.11 | 0.13 | 0.12 | 84 | 1019.2 |
| 20260905035730 | 51 | 358 | 0.9 | 3.5 | 0.10 | 0.12 | 0.11 | 84 | 1019.3 |
| 20260905034731 | 51 | 314 | 0.9 | 3.5 | 0.08 | 0.09 | 0.09 | 84 | 1019.7 |
| 20260905034230 | 52 | 341 | 0.0 | 2.6 | 0.06 | 0.08 | 0.07 | 83 | 1019.5 |
| 20260905033230 | 53 | 42 | 0.9 | 4.3 | 0.04 | 0.06 | 0.05 | 82 | 1019.3 |
| 20260905032732 | 54 | 312 | 1.7 | 4.3 | 0.03 | 0.05 | 0.05 | 82 | 1019.1 |
| 20260905032229 | 55 | 343 | 1.7 | 4.3 | 0.02 | 0.04 | 0.04 | 82 | 1018.9 |
| 20260905031733 | 55 | 348 | 1.7 | 7.8 | 0.02 | 0.03 | 0.03 | 82 | 1019.3 |
| 20260905031236 | 56 | 358 | 0.9 | 7.8 | 0.02 | 0.02 | 0.02 | 81 | 1019.2 |
| 20260905030233 | 57 | 83 | 1.7 | 6.1 | 0.02 | 0.02 | 0.02 | 76 | 1018.9 |
| 20260905025732 | 58 | 142 | 3.5 | 11.3 | 0.02 | 0.02 | 0.02 | 76 | 1018.7 |
| 20260905025232 | 58 | 353 | 2.6 | 11.3 | 0.02 | 0.02 | 0.02 | 80 | 1018.6 |
| 20260905024232 | 59 | 87 | 0.9 | 5.2 | 0.02 | 0.02 | 0.02 | 82 | 1018.0 |
| 20260905023734 | 59 | 353 | 0.0 | 2.6 | 0.02 | 0.02 | 0.02 | 82 | 1018.2 |